Regional Weather Roundup
Issued by NWS

Home | Current Version | Previous Version | Graphics & Text | Print | Product List | Glossary On
Versions: 1 2 3 4 5 6 7 8 9 10 11 12 13 14 15 16 17 18 19 20 21 22 23 24 25 26 27 28 29 30 31 32 33 34 35 36 37 38 39 40 41 42 43 44 45 46 47 48
000
ASUS43 KDMX 181007
RWRIA

WEATHER ROUNDUP FOR IOWA
NATIONAL WEATHER SERVICE DES MOINES IA
500 AM CDT THU SEP 18 2014

NOTE: "FAIR" INDICATES FEW OR NO CLOUDS BELOW 12,000 FEET WITH NO
SIGNIFICANT WEATHER AND/OR OBSTRUCTIONS TO VISIBILITY.

* - THESE STATIONS ARE NOT NWS STATIONS...THUS NOT UNDER NWS
QUALITY CONTROL.  THEY ALSO DO NOT REPORT WEATHER SUCH
AS PRECIPITATION OR FOG.

IAZ001>003-012>014-020>022-031>034-043>046-181100-
   NORTHWEST IOWA

CITY           SKY/WX    TMP DP  RH WIND       PRES   REMARKS
CARROLL *      FOG       46  46 100 CALM      30.00S VSB 1/2
CHEROKEE *     PTCLDY    52  52 100 CALM      30.00S
DENISON *      CLEAR     55  55 100 CALM      29.98R
LE MARS *        N/A     54  52  94 CALM      29.99S
ORANGE CITY *  PTCLDY    57  54  88 E5        29.99S
SHELDON *      CLOUDY    54  54 100 E5        29.99S
SIOUX CITY     PTCLDY    57  55  93 E5        29.98R
SPENCER        CLEAR     49  47  93 NE3       30.02R
STORM LAKE *   CLEAR     54  54 100 SE6       30.01R
$$

IAZ055>058-069>071-079>083-090>094-181100-
   SOUTHWEST IOWA

CITY           SKY/WX    TMP DP  RH WIND       PRES   REMARKS
ATLANTIC *     FOG       52  52 100 NE3       29.99S VSB 1/2
AUDUBON *      CLEAR     48  43  81 CALM      30.01S HAZE
CLARINDA *     CLOUDY    63  63 100 CALM      30.02R FOG
COUNCIL BLFS * CLEAR     57  57 100 S7        29.99R
CRESTON *      FOG       57  57 100 SE3       30.02R VSB 0
HARLAN  *      CLEAR     55  55 100 SE3       30.03R
LAMONI         FOG       57  57 100 SE3       30.02R VSB 1/4
SHENANDOAH *     N/A     63  61  94 SE6       30.01R
$$

IAZ047>049-059>061-072>074-084-181100-
   CENTRAL IOWA

CITY           SKY/WX    TMP DP  RH WIND       PRES   REMARKS
AMES           FOG       48  47  96 CALM      30.02S VSB 1/4
ANKENY *       CLEAR     52  52 100 CALM      30.02S FOG
CHARITON *     CLOUDY    54  54 100 SE3       30.02R FOG
DES MOINES     CLEAR     57  54  89 E3        30.02R
GRINNELL*      PTCLDY    50  48  93 E3        30.04S FOG
KNOXVILLE *    MOCLDY    54  52  94 E3        30.01R FOG
MARSHALLTOWN   CLEAR     48  47  96 E5        30.03S FOG
PELLA *        PTCLDY    52  52 100 CALM      30.04R FOG
PERRY *        FOG       52  52 100 E5        30.01S VSB 1
$$

IAZ004>006-015-016-023>025-035-036-181100-
   NORTH CENTRAL IOWA

CITY           SKY/WX    TMP DP  RH WIND       PRES   REMARKS
ALGONA *       CLEAR     54  52  94 SE7       30.02S
CLARION *        N/A     50  50 100 E5        30.03R
ESTHERVILLE    CLEAR     49  48  97 CALM      30.02R
FORT DODGE *   CLEAR     50  48  93 E6        30.01F
MASON CITY     CLEAR     45  44  97 CALM      30.05S
FOREST CITY *  CLEAR     46  46 100 E3        30.03S
IOWA FALLS *   FOG       50  48  93 CALM      30.04S VSB 1/2
$$

IAZ007>011-017>019-026>030-037>042-050>054-066-181100-
   NORTHEAST IOWA

CITY           SKY/WX    TMP DP  RH WIND       PRES   REMARKS
CEDAR RAPIDS   CLEAR     48  48 100 NE3       30.04R
CHARLES CITY * CLEAR     48  46  93 E5        30.05S
CLINTON *      CLEAR     45  43  93 NE7       30.07S
DECORAH *      CLEAR     48  48 100 CALM      30.05S
DUBUQUE        CLEAR     50  49  96 NE5       30.06S FOG
MONTICELLO *   CLEAR     45  45 100 CALM      30.05R FOG
OELWEIN *      CLEAR     46  46 100 E5        30.06R
WATERLOO       CLEAR     44  43  96 E3        30.04R
$$

IAZ064-065-067-068-078-181100-
   EAST CENTRAL IOWA

CITY           SKY/WX    TMP DP  RH WIND       PRES   REMARKS
DAVENPORT      CLEAR     47  45  93 CALM      30.04S
IOWA CITY      CLEAR     48  47  96 CALM      30.04S
MT. PLEASANT * CLEAR     46  46 100 E3        30.03S FOG
MUSCATINE *    FOG       46  46 100 CALM      30.04R VSB 0
QUAD CITIES    CLEAR     47  45  93 CALM      30.04S FOG
$$

IAZ062-063-075>077-085>089-095>099-181100-
   SOUTHEAST IOWA

CITY           SKY/WX    TMP DP  RH WIND       PRES   REMARKS
BURLINGTON     CLEAR     50  50 100 NE3       30.03R FOG
FAIRFIELD *    FOG       48  46  93 CALM      30.03R VSB 1/4
FORT MADISON * FOG       52  52 100 E3        30.03S VSB 1/2
KEOKUK *       FOG       50  50 100 E5        30.02R VSB 1/4
OSKALOOSA *      N/A     48  48 100 NE5       30.03R FOG
CENTERVILLE *  FOG       50  50 100 CALM      30.04R VSB 1
OTTUMWA        PTCLDY    50  49  96 CALM      30.02R FOG
WASHINGTON *   CLEAR     46  46 100 CALM      30.03R FOG
$$

ABBREVIATIONS USED IN REMARKS
   TC - TEMPERATURES IN CELSIUS
  WCI - WIND CHILL INDEX
   HX - HEAT INDEX
  VSB - VISIBILITY
$$




USA.gov is the U.S. government's official web portal to all federal, state and local government web resources and services.